User: anonymous   Login
Location: Unspecified
(0.0000°N, 0.0000°E)
Time: 08:44:48
(UTC+00:00)
Language:

Vela 1A - Orbit

View from above orbital plane
View from above orbital plane
View from above satellite
View from above satellite

Ground track
Ground track

The orbit data is extracted from the following two-line orbital elements,

1 00692U 63039C   14313.17782755 -.00000933  00000-0  00000+0 0   167
2 00692 032.5561 008.3283 5730951 146.0322 001.7912 00.22014652 41213
Epoch (UTC): 09 November 2014 04:16:04
Eccentricity: 0.5730951
inclination: 32.5561°
perigee height: 43082 km
apogee height: 175876 km
right ascension of ascending node: 8.3283°
argument of perigee: 146.0322°
revolutions per day: 0.22014652
mean anomaly at epoch: 1.7912°
orbit number at epoch: 4121

The dashed part of the orbit path shows where the satellite is in the earth's shadow,  

DLR